Location: Buckeye Ditch
(40.9104°N, 122.9517°W)
Time: 00:24:25
(UTC+00:00)

SR - Pass Details

Date: 24 May 2025
Orbit: 570 x 855 km, 66.7° (Epoch: 11 June)

Event Time Altitude Azimuth Distance (km) Brightness Sun altitude
Exits shadow 06:13:31 24° 88° (E) 1,714 ? -22.7°
Drops below altitude 10° 06:16:56 10° 54° (NE) 2,487 ? -23.0°
Sets 06:19:47 0° 42° (NE) 3,415 ? -23.3°
